Ravalli County (6S5)
Hamilton, MT
Field Elevation: 3642
Lat: 45°15.05N  Long: 114°07.31W
CTAF/Unicom Freq: 122.8000
   
     For Weather-by-Phone, call 406-375-9149
Weather Advisories
7/30/2014 02:55 Z
Altimeter 30.08" Hg
Wind 330° @ 0 KT
Gusts --
Visibility 10 SM
Temperature 26° C (79° F)
Dewpoint 8° C (46° F)
Relative Humidity 32%
Density Altitude 5,500 feet
Condensation Altitude 12,500 feet
  Wind and Runways
Indicated Runway = 34
History
 
 
More Info
All DigiWx sites map
NOAA Forecast
 
Airport IQ 5010
(S59) Libby
(79S) Fort Benton
 
about DigiWx
 
FAA Disclaimer: The data displayed is for advisory purposes only and is not to be used for flight planning or operations. For official data, please call 406-375-9149 to hear the current automated AWOS voice message.
  METAR 6S5 300255Z AUTO 33000KT 10SM 26/08 A3008